COSMOS 2520 (42907 NORAD) Tracking and Keplerian Element Data

This shows tracking and keplerian element data for the satellite.

Feedback or suggestion? Click here.




ElementValue
Catalog42907
NameCOSMOS 2520
Epoch Orbit966
Epoch Day93.90118888
Epoch Year2020
RAAN134.2017
Inclination0.0231
Eccentricity4.4E-06
Argument of Perigee300.1968
Mean Anonmoly126.6985
Mean Motion1.00272389
Decay Rate1.28E-06
L11 42907U 17046A 20093.90118888 .00000128 00000-0 00000+0 0 9997
L22 42907 0.0231 134.2017 0000044 300.1968 126.6985 1.00272389 9663

Live tracking and technical data element details for COSMOS 2520 (NORAD 42907). COSMOS 2520 can be tracked NOW for your location showing map with azimuth and elevation plus other details from your city location.

Track the satellite on the map from your city or location and see movement details for azimuth, elevation, latitude, longitude, range, height, and movement on the map or in text.







IsCatalogInMostPopularTable: catalog: 42907, numindb: 428
Update: records affected: 1



GetName: 42907 COSMOS 2520

Hit Count: updated at: Tue, 07 Apr 2020 23:37:24 GMT